Location: Voyageurs National Park
(48.5020°N, 92.9292°W)
Time: 13:47:41
(UTC-05:00)

Daily predictions for brighter satellites

Satellite Brightness Start Highest point End
(mag) Time Altitude Azimuth Time Altitude Azimuth Time Altitude Azimuth
Cosmos 2263 Rocket 2.6 20:43:52 10° NNW 20:49:29 53° NE 20:55:02 10° SE
ARGOS 4.5 20:46:50 10° ESE 20:50:59 23° ENE 20:55:07 10° N
Resurs 1-3 3.9 20:48:56 10° S 20:53:18 72° WSW 20:57:43 10° NNW
Cosmos 2322 Rocket 2.7 20:48:40 10° S 20:53:51 37° ESE 20:59:03 10° NE
Cosmos 44 Rocket 4.3 20:50:52 10° NW 20:55:21 43° WSW 20:59:53 10° S
Cosmos 1844 Rocket 4.4 20:52:34 10° N 20:56:45 20° NE 21:00:53 10° E
Okean 1 4.3 20:55:44 10° NNW 20:59:36 50° W 21:03:27 10° S
Cosmos 1939 Rocket 2.8 20:58:14 10° SSE 21:02:12 71° ENE 21:06:08 10° N
Meteor 1-19 Rocket 4.4 20:57:47 10° N 21:03:44 86° E 21:09:33 10° SSE
SL-16 R/B 2.5 20:59:11 10° S 21:04:31 44° ESE 21:09:52 10° NE
Lacrosse 5 rocket 3.0 21:03:55 10° WNW 21:06:54 24° SW 21:10:00 10° S
Cosmos 1633 3.3 21:04:33 10° SSW 21:08:06 57° WNW 21:11:44 10° N
Cosmos 1536 3.4 21:04:34 10° SSE 21:08:22 39° E 21:12:10 10° NNE
ATLAS 2AS CENTAUR R/B 3.6 21:01:46 10° S 21:08:30 34° ESE 21:15:34 10° NE
Cosmos 1850 Rocket 4.1 21:04:14 10° NNW 21:09:36 82° ENE 21:14:55 10° SSE
Cosmos 1452 Rocket 3.6 21:05:34 10° SSW 21:10:52 88° ESE 21:16:12 10° NNE
YAOGAN 6 2.5 21:09:34 10° SSE 21:13:05 66° ENE 21:16:36 10° N
Cosmos 1420 Rocket 3.9 21:08:57 10° S 21:14:05 68° ESE 21:19:16 10° NNE
NOSS 3-1 (A) 3.8 21:09:10 10° SW 21:15:04 73° NW 21:21:50 10° NE
S3M 4.2 21:11:16 10° N 21:17:32 80° W 21:23:51 10° S
Helios 1B rocket 3.0 21:13:56 10° NNE 21:17:46 37° E 21:21:35 10° SSE
Cosmos 839 Rocket 4.0 21:12:10 10° SSW 21:18:21 81° ESE 21:24:46 10° NE
NOSS 2-3 (E) 4.4 21:14:26 10° S 21:18:51 39° ESE 21:23:57 10° NE
Cosmos 921 Rocket 4.3 21:15:05 10° SW 21:19:05 44° WNW 21:23:08 10° N
Cosmos 1553 Rocket 4.3 21:13:49 10° NNW 21:19:59 71° W 21:26:02 10° S
CENTAUR R/B 4.5 21:14:23 10° NW 21:20:26 27° NNE 21:27:03 10° ENE
Cosmos 1607 4.1 21:14:12 10° NW 21:20:42 82° NE 21:26:39 13° SE
Okean 1 Rocket 3.6 21:16:53 10° SSE 21:20:55 39° E 21:25:00 10° NNE
Okean 1-7 Rocket 4.2 21:18:48 10° N 21:23:02 39° ENE 21:26:34 14° SE
COSMOS 2428 4.4 21:22:19 12° ESE 21:23:12 12° E 21:25:24 10° ENE
Resurs 01 Rocket 3.4 21:20:35 10° SSW 21:24:36 33° W 21:28:40 10° NNW
Tiangong 1 2.4 21:22:58 10° WSW 21:25:10 21° S 21:26:22 16° SSE
Cosmos 1300 Rocket 3.5 21:21:27 10° S 21:25:41 63° E 21:29:58 10° NNE
Cosmos 2315 Rocket 4.2 21:19:55 10° N 21:26:01 53° ENE 21:31:51 11° SSE
Cosmos 2360 Rocket 3.0 21:23:12 10° SSE 21:27:57 29° ESE 21:32:43 10° NE
Cosmos 1980 Rocket 3.2 21:23:30 10° SW 21:28:57 51° NW 21:34:25 10° NNE
Cosmos 1025 Rocket 3.3 21:25:32 10° N 21:29:41 46° ENE 21:32:56 15° SE
Cosmos 2266 Rocket 3.9 21:24:05 10° S 21:30:01 65° E 21:36:01 10° NNE
BREEZE-M DEB (TANK) 1.7 21:29:01 10° SW 21:31:41 35° SSE 21:32:24 26° ESE
SeaSat 1 2.4 21:26:54 10° NNE 21:31:52 86° ESE 21:36:49 10° SSW
Cosmos 220 Rocket 4.0 21:28:08 10° NNW 21:32:25 72° ENE 21:35:52 16° SSE
Meteor 1-5 Rocket 4.2 21:28:14 10° S 21:33:26 55° E 21:38:36 10° NNE
Cosmos 2151 Rocket 4.2 21:33:21 10° SSW 21:37:41 58° WNW 21:42:03 10° N
SPOT 5 3.5 21:35:22 17° SE 21:38:36 39° ENE 21:42:56 10° N
Meteor 2-4 Rocket 4.0 21:33:17 10° NNW 21:38:46 71° W 21:44:24 10° S
Lacrosse 5 2.4 21:38:47 10° SSW 21:43:18 34° SE 21:47:51 10° ENE
BREEZE-M DEB 3.8 21:32:27 10° W 21:44:20 86° N 21:46:59 19° E
NOAA 11 4.2 21:41:13 12° SSE 21:46:26 85° ENE 21:51:58 10° NNW
CZ-4B DEB 2.8 21:48:19 18° S 21:50:15 62° WSW 21:53:09 10° NNW
USA 245 4.0 21:47:46 19° SE 21:51:11 54° ENE 21:55:19 10° N
USA 215 4.3 21:45:14 10° ENE 21:51:19 43° N 21:57:25 10° WNW
H-2A R/B 4.3 21:50:04 10° ENE 21:51:46 12° NE 21:53:33 10° NNE
NOSS 2-3 (C) 3.9 21:47:36 10° SSW 21:52:21 68° SE 21:58:00 10° NE
Okean 2 3.3 21:49:49 10° N 21:53:55 72° E 21:56:27 22° SSE
ERBS 3.4 21:50:44 10° WSW 21:54:07 48° NNW 21:57:31 10° NE
Atlas Centaur 2 4.3 21:50:36 10° SW 21:55:07 17° SSW 21:58:01 13° SSE
Meteor 1-29 2.8 21:54:33 10° NNE 21:58:00 84° ESE 22:00:59 13° SSW
NOSS 3-2 (A) 4.3 21:53:35 10° NW 22:00:42 55° NE 22:06:19 20° ESE
USA 238 DEB 3.8 21:54:39 10° NW 22:01:46 80° NE 22:06:30 23° SE
USA 238 3.8 21:54:45 10° NW 22:01:53 80° NE 22:06:37 23° SE
Helios 1A 4.2 21:58:51 10° S 22:02:51 40° W 22:06:54 10° NNW
Cosmos 1066 Rocket 4.4 21:58:57 10° N 22:04:14 51° ENE 22:07:04 26° SE
SAR-Lupe-4 4.0 22:02:01 20° S 22:04:24 61° WSW 22:07:58 10° NNW
Cosmos 1892 Rocket 3.7 22:06:02 10° N 22:10:27 57° ENE 22:12:13 33° SE
ERS-1 Rocket 3.2 22:06:24 16° S 22:10:28 66° WSW 22:15:30 10° NNW
MetOp-A 4.3 22:06:28 17° S 22:10:39 76° WSW 22:16:03 10° NNW
H-2A R/B 2.0 22:10:30 27° SE 22:13:11 66° ENE 22:18:08 10° N
Landsat 7 4.3 22:13:15 30° ESE 22:15:06 45° ENE 22:19:39 10° N
Abrixas rocket 2.0 22:15:45 10° W 22:19:03 85° S 22:19:36 58° ESE
ATLAS 3B R/B 2.7 22:14:53 10° NW 22:21:40 74° SW 22:25:20 28° SSE
EXPRESS MD2 3.5 22:19:13 10° WSW 22:22:29 87° SSE 22:29:03 10° ENE
Cosmos 1743 3.9 22:23:01 26° ENE 22:23:01 26° ENE 22:25:48 10° NNE
Cosmos 1975 3.0 22:23:15 45° SE 22:23:59 52° E 22:27:53 10° NNE
SL-8 R/B 3.8 22:21:05 10° W 22:25:50 63° SSW 22:27:23 40° SE
SL-08 RB Rocket 3.7 22:23:35 30° S 22:25:53 80° WSW 22:30:26 10° NNW
GP-B 4.2 22:22:10 10° NNE 22:26:00 27° E 22:26:15 27° E
Cosmos 1544 Rocket 3.7 22:28:18 42° SE 22:29:21 52° E 22:33:43 10° NNE
Cosmos 405 2.9 22:29:33 60° SE 22:29:49 63° E 22:33:24 10° NNE
Meteor 1-12 Rocket 4.3 22:27:34 31° SSE 22:30:08 56° E 22:35:40 10° NNE
Terra 2.3 22:29:05 35° ESE 22:30:26 45° ENE 22:34:59 10° N
ARGOS 3.5 22:27:17 22° S 22:30:47 63° WSW 22:36:09 10° NNW
NOSS 2-3 (D) 4.3 22:27:21 10° SW 22:32:11 70° NW 22:38:00 10° NE
Cosmos 2278 Rocket 3.2 22:27:40 10° NNW 22:32:53 35° NE 22:35:15 25° E
Cosmos 2263 Rocket 3.8 22:28:17 10° NW 22:33:07 29° WSW 22:37:35 12° SSW
Cosmos 1486 Rocket 3.9 22:29:25 10° NNW 22:34:43 89° WSW 22:36:48 38° SSE
Cosmos 1302 Rocket 4.0 22:35:30 34° S 22:37:38 58° ESE 22:42:49 10° NNE
Cosmos 2322 Rocket 3.5 22:32:26 10° SW 22:37:51 43° NW 22:43:17 10° NNE
NOSS 3-2 (C) 4.1 22:31:18 10° NW 22:38:35 66° NE 22:42:56 29° ESE
Cosmos 2237 4.2 22:34:51 21° S 22:38:40 63° ESE 22:44:18 10° NNE
Cosmos 1844 Rocket 2.6 22:35:48 10° NNW 22:41:32 84° ENE 22:43:39 40° SSE
Cosmos 1455 Rocket 3.1 22:41:14 52° SE 22:42:01 62° E 22:46:27 10° NNE
ATLAS CENTAUR R/B 3.8 22:42:21 10° N 22:43:53 12° NNE 22:45:25 10° NE
Nadezhda 1 Rocket 4.0 22:39:22 10° N 22:45:40 70° E 22:48:14 38° SSE
Cosmos 1110 Rocket 4.3 22:40:58 10° SSW 22:46:06 67° WNW 22:51:18 10° NNE
SL-16 R/B 3.7 22:43:30 10° WSW 22:48:43 37° NW 22:53:59 10° NNE
IGS 5A 3.3 22:55:06 67° ESE 22:55:27 72° ENE 22:59:38 10° N
Spot 4 4.4 22:55:32 38° E 22:56:13 40° ENE 23:00:41 10° N
DMSP B5D2-2 4.0 22:51:01 10° NNE 22:56:17 71° ESE 22:57:49 46° S
Cosmos 1238 Rocket 4.5 22:49:57 10° NNW 22:56:37 62° W 23:00:29 25° SSW
Cosmos 2322 3.8 22:52:00 10° SSW 22:57:40 77° WNW 23:03:23 10° NNE
Cosmos 2219 Rocket 2.6 22:57:52 41° ESE 22:57:52 41° ESE 23:03:07 10° NE
ATLAS 2AS CENTAUR R/B 3.3 22:51:10 10° SW 22:59:01 74° NW 23:07:14 10° NE
COSMOS 2455 4.3 22:54:20 10° NNW 22:59:30 28° NE 23:02:47 18° E
Cosmos 1500 4.3 22:59:14 27° SW 23:00:50 43° WNW 23:04:35 10° N
Cosmos 1709 Rocket 4.3 23:05:19 41° ESE 23:06:18 44° E 23:12:09 10° NNE
COSMOS 2428 2.6 23:04:15 39° S 23:06:27 74° ESE 23:12:11 10° NNE
NOSS 3-4 (A) 4.0 23:10:01 38° ESE 23:10:01 38° ESE 23:15:21 10° NE
NOSS 3-4 (C) 4.1 23:10:10 37° ESE 23:10:10 37° ESE 23:15:27 10° NE
BREEZE-M DEB (TANK) 4.1 23:05:50 10° WSW 23:10:25 89° NNW 23:30:46 10° E
Cosmos 1354 Rocket 4.0 23:05:22 10° NNW 23:10:44 84° WSW 23:11:50 58° S
Cosmos 2360 Rocket 2.9 23:06:10 10° SW 23:11:40 52° WNW 23:17:12 10° NNE
Cosmos 1437 Rocket 2.8 23:12:13 76° NNE 23:12:13 76° NNE 23:15:55 10° NNE
CENTAUR R/B 3.6 23:05:30 10° NW 23:12:54 52° NE 23:17:28 27° ESE
Cosmos 1844 3.7 23:07:55 10° NNW 23:13:36 74° WSW 23:14:57 52° S
CARTOSAT-1 3.5 23:13:35 67° SW 23:13:56 71° WSW 23:18:17 10° NNW
SPOT 1/Viking Rocket 4.5 23:12:34 29° SSW 23:14:40 42° W 23:19:38 10° NNW
Cosmos 1818 3.5 23:15:58 62° SSE 23:16:23 64° ESE 23:21:47 10° NE
SPOT 5 4.4 23:14:37 21° SW 23:16:45 29° W 23:20:50 10° NW
CZ-2C R/B 4.1 23:16:29 28° ENE 23:16:52 28° ENE 23:20:56 10° N
CZ-4 R/B 4.4 23:14:13 10° NNE 23:18:09 42° ENE 23:18:09 42° ENE
Cosmos 2333 Rocket 2.4 23:20:18 49° E 23:20:18 49° E 23:25:29 10° NE
CZ-4B R/B 4.4 23:17:38 10° NNE 23:21:00 32° ENE 23:21:00 32° ENE
Cosmos 1602 Rocket 3.5 23:18:12 10° NNW 23:22:34 78° W 23:22:34 78° W
USA 81 4.0 23:20:03 10° N 23:25:21 68° E 23:25:48 64° ESE
Lacrosse 5 2.2 23:21:00 10° WSW 23:26:03 64° NNW 23:31:08 10° NE
H-2A R/B 2.0 23:27:12 82° NNE 23:27:12 82° NNE 23:31:28 10° NNW
Timation 1 Rocket 4.2 23:22:02 10° NNW 23:28:03 86° ENE 23:29:13 61° SE
Cosmos 2333 4.1 23:26:46 41° SSW 23:28:52 84° WNW 23:34:32 10° NNE
Cosmos 1503 Rocket 4.3 23:27:49 10° NNW 23:33:05 56° WSW 23:33:53 51° SW
USA 215 3.9 23:28:28 15° E 23:33:39 51° NNE 23:39:56 10° WNW
Cosmos 2237 Rocket 2.6 23:42:17 46° E 23:42:17 46° E 23:46:57 10° NE
Cosmos 1842 4.0 23:38:44 10° NNW 23:41:56 50° NW 23:41:56 50° NW
ARGOS Delta rocket 3.7 23:38:17 10° N 23:42:49 78° WNW 23:42:49 78° WNW
deb Chang Zheng 4 4.1 23:39:06 10° NNE 23:42:32 50° NE 23:42:32 50° NE
DNEPR-1 R/B 4.2 23:40:19 10° NNW 23:44:33 50° NE 23:44:35 50° NE
Cosmos 1666 3.8 23:46:46 42° WNW 23:46:46 42° WNW 23:50:08 10° N
Cosmos 1626 Rocket 4.4 23:43:02 10° NNW 23:47:04 40° W 23:47:04 40° W
Cosmos 1980 3.8 23:47:54 58° E 23:47:54 58° E 23:53:04 10° NE
Cosmos 972 Rocket 4.2 23:48:07 64° E 23:48:07 64° E 23:54:01 10° NNE
BREEZE-M DEB (TANK) 3.7 23:33:25 10° WSW 23:50:02 86° SSE 23:52:19 35° E
Meteor 1-4 Rocket 4.1 23:52:22 34° NNE 23:52:22 34° NNE 23:54:37 10° NNE
NOSS 3-2 (A) 4.4 23:44:35 10° NW 23:51:45 50° WSW 23:53:41 42° SSW
H-2A R/B 4.0 23:51:09 15° WSW 23:53:04 18° W 23:56:30 10° NW
